CW9148 Weather Reports


Display with metric or nautical units.
time (UTC)temp
F
wind
direction
speed
MPH
gust
MPH
rain 1hr
in
rain 24hr
in
rain mn
in
humidity
%
barometer
mb
20260902173833 60 218 0.0 0.0 0.00 0.00 0.00 52 1018.4
20260902173324 60 164 0.0 0.0 0.00 0.00 0.00 53 1018.4
20260902172845 59 177 0.0 0.0 0.00 0.00 0.00 54 1018.4
20260902172323 59 185 0.0 0.0 0.00 0.00 0.00 54 1018.3
20260902171815 58 175 0.0 0.0 0.00 0.00 0.00 58 1018.3
20260902171328 58 186 0.0 0.0 0.00 0.00 0.00 57 1018.3
20260902170849 58 165 0.0 0.0 0.00 0.00 0.00 58 1018.3
20260902170343 57 167 0.0 0.0 0.00 0.00 0.00 60 1018.3
20260902165822 57 167 0.0 0.0 0.00 0.00 0.00 59 1018.3
20260902165344 58 204 0.0 0.0 0.00 0.00 0.00 59 1018.4
20260902164828 58 204 0.0 0.0 0.00 0.00 0.00 58 1018.4
20260902164327 58 204 0.0 0.0 0.00 0.00 0.00 58 1018.4
20260902163830 58 204 0.0 0.0 0.00 0.00 0.00 58 1018.1
20260902163330 58 204 0.0 0.0 0.00 0.00 0.00 57 1018.1
20260902162834 57 203 0.0 0.0 0.00 0.00 0.00 57 1018.1
20260902162358 57 146 0.0 0.0 0.00 0.00 0.00 57 1018.0
20260902161817 57 146 0.0 0.0 0.00 0.00 0.00 58 1018.0
20260902161336 57 145 0.0 0.0 0.00 0.00 0.00 59 1018.0
20260902160832 56 145 0.0 0.0 0.00 0.00 0.00 60 1017.9
20260902160330 56 128 0.0 0.0 0.00 0.00 0.00 61 1017.9
20260902155826 55 128 0.0 0.0 0.00 0.00 0.00 61 1017.9
20260902155325 55 128 0.0 0.0 0.00 0.00 0.00 62 1017.9
20260902154825 55 128 0.0 0.0 0.00 0.00 0.00 61 1017.9
20260902154323 55 128 0.0 0.0 0.00 0.00 0.00 63 1017.9
20260902153823 55 128 0.0 0.0 0.00 0.00 0.00 63 1017.9
20260902153323 54 128 0.0 0.0 0.00 0.00 0.00 63 1017.9
20260902152822 54 128 0.0 0.0 0.00 0.00 0.00 64 1017.9
20260902152320 54 128 0.0 0.0 0.00 0.00 0.00 64 1017.8
20260902151901 54 128 0.0 0.0 0.00 0.00 0.00 65 1017.8
20260902151338 53 128 0.0 0.0 0.00 0.00 0.00 66 1017.8
20260902150815 53 138 0.0 0.0 0.00 0.00 0.00 68 1017.8
20260902150339 53 138 0.0 0.0 0.00 0.00 0.00 68 1017.8
20260902145816 53 138 0.0 0.0 0.00 0.00 0.00 69 1017.8
20260902145314 52 138 0.0 0.0 0.00 0.00 0.00 70 1017.9
20260902144818 52 138 0.0 0.0 0.00 0.00 0.00 70 1017.9
20260902144345 52 138 0.0 0.0 0.00 0.00 0.00 69 1017.9
20260902143822 51 138 0.0 0.0 0.00 0.00 0.00 69 1017.8
20260902143316 51 138 0.0 0.0 0.00 0.00 0.00 69 1017.8
20260902142815 51 138 0.0 0.0 0.00 0.00 0.00 69 1017.8
20260902142341 51 138 0.0 0.0 0.00 0.00 0.00 70 1017.8
20260902141838 51 138 0.0 0.0 0.00 0.00 0.00 70 1017.3
20260902141342 51 138 0.0 0.0 0.00 0.00 0.00 70 1017.3
20260902140836 51 138 0.0 0.0 0.00 0.00 0.00 69 1017.2
20260902140335 50 138 0.0 0.0 0.00 0.00 0.00 69 1017.2
20260902135835 50 138 0.0 0.0 0.00 0.00 0.00 69 1017.2
20260902135332 50 138 0.0 0.0 0.00 0.00 0.00 69 1017.2
20260902134832 50 138 0.0 0.0 0.00 0.00 0.00 69 1017.2
20260902134326 50 138 0.0 0.0 0.00 0.00 0.00 69 1017.2
20260902133820 50 138 0.0 0.0 0.00 0.00 0.00 69 1017.0
20260902133324 50 138 0.0 0.0 0.00 0.00 0.00 69 1017.0
20260902132825 50 138 0.0 0.0 0.00 0.00 0.00 69 1017.0
20260902132322 50 138 0.0 0.0 0.00 0.00 0.00 69 1016.7
20260902131847 50 138 0.0 0.0 0.00 0.00 0.00 69 1016.7
20260902131325 50 138 0.0 0.0 0.00 0.00 0.00 69 1016.7
20260902130824 50 138 0.0 0.0 0.00 0.00 0.00 69 1016.7
20260902130325 50 138 0.0 0.0 0.00 0.00 0.00 69 1016.7
20260902125823 50 138 0.0 0.0 0.00 0.00 0.00 69 1016.7
20260902125323 50 138 0.0 0.0 0.00 0.00 0.00 69 1016.6
20260902124818 50 138 0.0 0.0 0.00 0.00 0.00 69 1016.6
20260902124326 50 138 0.0 0.0 0.00 0.00 0.00 69 1016.6
20260902123825 50 138 0.0 0.0 0.00 0.00 0.00 69 1016.6
20260902123326 50 138 0.0 0.0 0.00 0.00 0.00 70 1016.6
20260902122834 50 142 0.0 0.0 0.00 0.00 0.00 70 1016.6
20260902122333 50 142 0.0 0.0 0.00 0.00 0.00 70 1016.5
20260902121830 50 142 0.0 0.0 0.00 0.00 0.00 70 1016.5
20260902121334 50 142 0.0 0.0 0.00 0.00 0.00 70 1016.5
20260902120833 50 142 0.0 0.0 0.00 0.00 0.00 70 1016.5
20260902120359 49 142 0.0 0.0 0.00 0.00 0.00 71 1016.5
20260902115839 49 142 0.0 0.0 0.00 0.00 0.00 71 1016.5
20260902115332 49 142 0.0 0.0 0.00 0.00 0.00 71 1016.6
20260902114833 49 142 0.0 0.0 0.00 0.00 0.00 71 1016.6
20260902114331 49 142 0.0 0.0 0.00 0.00 0.00 72 1016.6
20260902113830 49 142 0.0 0.0 0.00 0.00 0.00 72 1016.7
20260902113334 49 142 0.0 0.0 0.00 0.00 0.00 72 1016.7
20260902112833 49 142 0.0 0.0 0.00 0.00 0.00 73 1016.7
20260902112400 49 142 0.0 0.0 0.00 0.00 0.00 73 1016.9
20260902111837 49 155 0.0 0.0 0.00 0.00 0.00 71 1016.9
20260902111337 50 155 0.0 0.0 0.00 0.00 0.00 70 1016.9
20260902110835 50 155 0.0 0.0 0.00 0.00 0.00 69 1017.0
20260902110335 50 155 0.0 0.0 0.00 0.00 0.00 69 1017.0
20260902105830 50 155 0.0 0.0 0.00 0.00 0.00 69 1017.0
20260902105331 51 154 0.0 0.0 0.00 0.00 0.00 68 1017.1
20260902104829 51 154 0.0 0.0 0.00 0.00 0.00 66 1017.1
20260902104332 51 155 0.0 0.0 0.00 0.00 0.00 66 1017.1
20260902103831 51 155 0.0 0.0 0.00 0.00 0.00 66 1017.0
20260902103331 52 155 0.0 0.0 0.00 0.00 0.00 66 1017.0
20260902102855 52 154 0.0 0.0 0.00 0.00 0.00 66 1017.0
20260902102314 52 155 0.0 0.0 0.00 0.00 0.00 65 1017.0
20260902101900 52 155 0.0 0.0 0.00 0.00 0.00 64 1017.0
20260902101337 52 155 0.0 0.0 0.00 0.00 0.00 63 1017.0
20260902100830 52 155 0.0 0.0 0.00 0.00 0.00 64 1016.9
20260902100351 52 154 0.0 0.0 0.00 0.00 0.00 64 1016.9
20260902095830 52 154 0.0 0.0 0.00 0.00 0.00 64 1016.9
20260902095330 52 152 0.0 0.0 0.00 0.00 0.00 64 1016.9
20260902094832 52 146 0.0 0.0 0.00 0.00 0.00 64 1016.9
20260902094333 52 133 0.0 0.0 0.00 0.00 0.00 64 1016.9
20260902093832 52 133 0.0 0.0 0.00 0.00 0.00 65 1017.0
20260902093331 52 121 0.0 0.0 0.00 0.00 0.00 65 1017.0
20260902092857 52 128 0.0 0.0 0.00 0.00 0.00 65 1017.0
20260902092334 52 123 0.0 0.0 0.00 0.00 0.00 65 1017.1
20260902091829 52 114 0.0 0.0 0.00 0.00 0.00 66 1017.1
20260902091355 52 114 0.0 0.0 0.00 0.00 0.00 66 1017.1
20260902090815 51 113 0.0 0.0 0.00 0.00 0.00 66 1017.0
20260902090341 51 113 0.0 0.0 0.00 0.00 0.00 66 1017.0
20260902085840 51 113 0.0 0.0 0.00 0.00 0.00 67 1017.0
20260902085318 51 120 0.0 0.0 0.00 0.00 0.00 67 1017.0
20260902084814 51 120 0.0 0.0 0.00 0.00 0.00 68 1017.0
20260902084338 51 113 0.0 0.0 0.00 0.00 0.00 68 1017.0
20260902083835 51 113 0.0 0.0 0.00 0.00 0.00 68 1016.9
20260902083333 51 118 0.0 0.0 0.00 0.00 0.00 69 1016.9
20260902082854 51 118 0.0 0.0 0.00 0.00 0.00 70 1016.9
20260902082330 50 120 0.0 0.0 0.00 0.00 0.00 70 1016.9
20260902081826 50 117 0.0 0.0 0.00 0.00 0.00 72 1016.9
20260902081324 50 101 0.0 0.0 0.00 0.00 0.00 73 1016.9
20260902080822 49 117 0.0 0.0 0.00 0.00 0.00 74 1017.0
20260902080315 49 119 0.0 0.0 0.00 0.00 0.00 76 1017.0
20260902075815 49 114 0.0 0.0 0.00 0.00 0.00 77 1017.0
20260902075337 48 106 0.0 0.0 0.00 0.00 0.00 78 1016.8
20260902074836 48 110 0.0 0.0 0.00 0.00 0.00 79 1016.8
20260902074335 48 110 0.0 0.0 0.00 0.00 0.00 79 1016.8
20260902073835 48 111 0.0 0.0 0.00 0.00 0.00 79 1016.9
20260902073329 48 111 0.0 0.0 0.00 0.00 0.00 79 1016.9
20260902072827 48 111 0.0 0.0 0.00 0.00 0.00 79 1016.9
20260902072353 48 111 0.0 0.0 0.00 0.00 0.00 79 1016.9
20260902071830 48 111 0.0 0.0 0.00 0.00 0.00 80 1016.9
20260902071330 48 111 0.0 0.0 0.00 0.00 0.00 80 1016.9
20260902070857 48 111 0.0 0.0 0.00 0.00 0.00 81 1016.7
20260902070335 48 111 0.0 0.0 0.00 0.00 0.00 81 1016.7
20260902065827 48 111 0.0 0.0 0.00 0.00 0.00 81 1016.7
20260902065326 48 116 0.0 0.0 0.00 0.00 0.00 80 1016.8
20260902064850 48 128 0.0 0.0 0.00 0.00 0.00 80 1016.8
20260902064327 48 128 0.0 0.0 0.00 0.00 0.00 80 1016.8
20260902063831 48 128 0.0 0.0 0.00 0.00 0.00 81 1017.1
20260902063321 48 98 0.0 0.0 0.00 0.00 0.00 81 1017.1
20260902062822 48 96 0.0 0.0 0.00 0.00 0.00 80 1017.1
20260902062345 48 89 0.0 0.0 0.00 0.00 0.00 80 1017.2
20260902061851 48 88 0.0 0.0 0.00 0.00 0.00 80 1017.2
20260902061357 49 58 0.0 0.0 0.00 0.00 0.00 80 1017.2
20260902060835 49 47 0.0 0.0 0.00 0.00 0.00 79 1017.4
20260902060319 49 47 0.0 0.0 0.00 0.00 0.00 79 1017.4
20260902055827 49 11 0.0 0.0 0.00 0.00 0.00 79 1017.4
20260902055328 49 304 0.0 0.0 0.00 0.00 0.00 78 1017.6
20260902054853 49 304 0.0 0.0 0.00 0.00 0.00 78 1017.6
20260902054338 49 303 0.0 0.0 0.00 0.00 0.00 78 1017.6
20260902053835 49 303 0.0 0.0 0.00 0.00 0.00 78 1017.7
20260902053333 49 303 0.0 0.0 0.00 0.00 0.00 79 1017.7
20260902052900 49 303 0.0 0.0 0.00 0.00 0.00 79 1017.7
20260902052335 50 303 0.0 0.0 0.00 0.00 0.00 79 1017.8
20260902051833 50 303 0.0 0.0 0.00 0.00 0.00 80 1017.8
20260902051332 50 303 0.0 0.0 0.00 0.00 0.00 80 1017.8
20260902050858 50 303 0.0 0.0 0.00 0.00 0.00 79 1017.7
20260902050337 50 303 0.0 0.0 0.00 0.00 0.00 79 1017.7
20260902045835 50 303 0.0 0.0 0.00 0.00 0.00 80 1017.7
20260902045334 50 303 0.0 0.0 0.00 0.00 0.00 79 1017.6
20260902044830 50 303 0.0 0.0 0.00 0.00 0.00 79 1017.6
20260902044330 50 303 0.0 0.0 0.00 0.00 0.00 79 1017.6
20260902043830 51 303 0.0 0.0 0.00 0.00 0.00 78 1017.3
20260902043355 51 303 0.0 0.0 0.00 0.00 0.00 78 1017.3
20260902042829 51 303 0.0 0.0 0.00 0.00 0.00 77 1017.3
20260902042327 51 292 0.0 0.0 0.00 0.00 0.00 75 1017.2
20260902041829 52 291 0.0 0.0 0.00 0.00 0.00 74 1017.2
20260902041327 52 291 0.0 0.0 0.00 0.00 0.00 73 1017.2
20260902040825 52 291 0.0 0.0 0.00 0.00 0.00 73 1017.0
20260902040351 52 291 0.0 0.0 0.00 0.00 0.00 72 1017.0
20260902035856 53 293 0.0 0.0 0.00 0.00 0.00 71 1017.0
20260902035334 53 300 0.0 0.0 0.00 0.00 0.00 70 1016.8
20260902034834 53 303 0.0 0.0 0.00 0.00 0.00 69 1016.8
20260902034332 53 302 0.0 0.0 0.00 0.00 0.00 69 1016.8
20260902033831 54 291 0.0 0.0 0.00 0.00 0.00 67 1016.5
20260902033331 54 290 0.0 0.0 0.00 0.00 0.00 65 1016.5
20260902032857 55 298 0.0 0.0 0.00 0.00 0.00 64 1016.5
20260902032323 55 283 0.0 0.0 0.00 0.00 0.00 62 1016.2
20260902031821 55 283 0.0 0.0 0.00 0.00 0.00 61 1016.2
20260902031321 56 283 0.0 0.0 0.00 0.00 0.00 60 1016.2
20260902030816 56 283 0.0 0.0 0.00 0.00 0.00 60 1016.1
20260902030316 56 283 0.0 0.0 0.00 0.00 0.00 59 1016.1
20260902025842 56 283 0.0 0.0 0.00 0.00 0.00 59 1016.1
20260902025336 57 283 0.0 0.0 0.00 0.00 0.00 58 1016.0
20260902024815 57 283 0.0 0.0 0.00 0.00 0.00 58 1016.0
20260902024317 57 285 0.0 0.0 0.00 0.00 0.00 57 1016.0
20260902023814 58 283 0.0 0.0 0.00 0.00 0.00 57 1015.8
20260902023316 58 283 0.0 0.0 0.00 0.00 0.00 56 1015.8
20260902022822 58 283 0.0 0.0 0.00 0.00 0.00 55 1015.8
20260902022322 59 288 0.0 0.0 0.00 0.00 0.00 54 1015.8
20260902021821 59 288 0.0 0.0 0.00 0.00 0.00 54 1015.8
20260902021320 60 287 0.0 0.0 0.00 0.00 0.00 53 1015.8
20260902020819 60 287 0.0 0.0 0.00 0.00 0.00 52 1015.6
20260902020317 61 276 0.0 0.0 0.00 0.00 0.00 51 1015.6
20260902015837 61 275 0.0 0.0 0.00 0.00 0.00 50 1015.6
20260902015336 61 269 0.0 0.0 0.00 0.00 0.00 50 1015.6
20260902014814 61 288 0.0 0.0 0.00 0.00 0.00 50 1015.6
20260902014314 61 249 0.0 0.0 0.00 0.00 0.00 50 1015.6
20260902013814 61 304 0.0 0.0 0.00 0.00 0.00 50 1015.6
20260902013314 61 304 0.0 0.0 0.00 0.00 0.00 49 1015.6
20260902012837 61 299 0.0 0.0 0.00 0.00 0.00 49 1015.6
20260902012315 62 291 0.0 0.0 0.00 0.00 0.00 48 1015.6
20260902011814 62 295 0.0 0.0 0.00 0.00 0.00 47 1015.6
20260902011316 62 262 0.0 0.0 0.00 0.00 0.00 47 1015.6
20260902010814 62 299 0.0 0.0 0.00 0.00 0.00 47 1015.5
20260902010336 63 279 0.0 0.0 0.00 0.00 0.00 46 1015.5
20260902005815 63 248 0.0 0.0 0.00 0.00 0.00 45 1015.5
20260902005341 63 255 0.0 0.0 0.00 0.00 0.00 45 1015.6
20260902004839 63 173 0.0 0.0 0.00 0.00 0.00 46 1015.6
20260902004339 63 240 0.0 0.0 0.00 0.00 0.00 46 1015.6
20260902003839 62 313 0.0 0.0 0.00 0.00 0.00 46 1015.6
20260902003317 63 279 0.0 0.0 0.00 0.00 0.00 46 1015.6
20260902002815 63 302 0.0 0.0 0.00 0.00 0.00 44 1015.6
20260902002341 64 317 0.0 0.0 0.00 0.00 0.00 44 1015.6
20260902001821 64 290 0.0 0.0 0.00 0.00 0.00 44 1015.6
20260902001401 64 311 0.0 0.0 0.00 0.00 0.00 43 1015.6
20260902000841 65 290 0.0 0.0 0.00 0.00 0.00 43 1015.6
20260902000340 65 221 0.0 0.0 0.00 0.00 0.00 43 1015.6
20260901235839 64 207 0.0 0.0 0.00 0.00 0.00 43 1015.6
20260901235316 64 219 0.0 0.0 0.00 0.00 0.00 43 1015.8
20260901234816 64 218 0.0 0.0 0.00 0.00 0.00 43 1015.8
20260901234315 64 207 0.0 0.0 0.00 0.00 0.00 44 1015.8
20260901233817 63 204 0.0 0.0 0.00 0.00 0.00 44 1015.9
20260901233342 64 284 0.0 0.0 0.00 0.00 0.00 43 1015.9
20260901232843 64 294 0.0 0.0 0.00 0.00 0.00 44 1015.9
20260901232320 64 306 0.0 0.0 0.00 0.00 0.00 45 1016.0
20260901231821 63 246 0.0 0.0 0.00 0.00 0.00 45 1016.0
20260901231318 63 292 0.0 0.0 0.00 0.00 0.00 46 1016.0
20260901230815 64 211 0.0 0.0 0.00 0.00 0.00 46 1016.0
20260901230316 64 271 0.0 0.0 0.00 0.00 0.00 46 1016.0
20260901225814 63 276 0.0 0.0 0.00 0.00 0.00 46 1016.0
20260901225339 63 312 0.0 0.0 0.00 0.00 0.00 46 1016.0
20260901224836 63 212 0.0 0.0 0.00 0.00 0.00 47 1016.0
20260901224333 62 300 0.0 0.0 0.00 0.00 0.00 48 1016.0
20260901223858 63 283 0.0 0.0 0.00 0.00 0.00 47 1016.0
20260901223332 63 292 0.0 0.0 0.00 0.00 0.00 46 1016.0
20260901222829 63 283 0.0 0.0 0.00 0.00 0.00 46 1016.0
20260901222355 63 304 0.0 0.0 0.00 0.00 0.00 45 1016.1
20260901221901 64 294 0.0 0.0 0.00 0.00 0.00 43 1016.1
20260901221338 65 209 0.0 0.0 0.00 0.00 0.00 43 1016.1
20260901220837 65 191 0.0 0.0 0.00 0.00 0.00 41 1016.2
20260901220337 65 218 0.0 0.0 0.00 0.00 0.00 40 1016.2
20260901215837 65 209 0.0 0.0 0.00 0.00 0.00 41 1016.2
20260901215319 66 202 0.0 0.0 0.00 0.00 0.00 39 1016.1
20260901214819 66 216 0.0 0.0 0.00 0.00 0.00 37 1016.1
20260901214319 66 200 0.0 0.0 0.00 0.00 0.00 37 1016.1
20260901213902 66 192 0.0 0.0 0.00 0.00 0.00 36 1016.1
20260901213340 66 194 0.0 0.0 0.00 0.00 0.00 36 1016.1
20260901212840 66 207 0.0 0.0 0.00 0.00 0.00 36 1016.1
20260901212320 66 150 0.0 0.0 0.00 0.00 0.00 38 1016.3
20260901211820 66 199 0.0 0.0 0.00 0.00 0.00 37 1016.3
20260901211329 66 242 0.0 0.0 0.00 0.00 0.00 39 1016.3
20260901210827 66 214 0.0 0.0 0.00 0.00 0.00 40 1016.4
20260901210355 66 291 0.0 0.0 0.00 0.00 0.00 40 1016.4
20260901205833 66 187 0.0 0.0 0.00 0.00 0.00 39 1016.4
20260901205330 65 205 0.0 0.0 0.00 0.00 0.00 42 1016.3
20260901204832 65 208 0.0 0.0 0.00 0.00 0.00 41 1016.3
20260901204332 65 288 0.0 0.0 0.00 0.00 0.00 40 1016.3
20260901203830 65 214 0.0 0.0 0.00 0.00 0.00 41 1016.6
20260901203326 64 207 0.0 0.0 0.00 0.00 0.00 43 1016.6
20260901202825 64 223 0.0 0.0 0.00 0.00 0.00 48 1016.6
20260901202322 65 202 0.0 0.0 0.00 0.00 0.00 47 1016.3
20260901201822 65 204 0.0 0.0 0.00 0.00 0.00 46 1016.3
20260901201348 65 188 0.0 0.0 0.00 0.00 0.00 47 1016.3
20260901200830 64 223 0.0 0.0 0.00 0.00 0.00 46 1016.6
20260901200330 63 207 0.0 0.0 0.00 0.00 0.00 51 1016.6
20260901195828 63 187 0.0 0.0 0.00 0.00 0.00 52 1016.6
20260901195324 63 205 0.0 0.0 0.00 0.00 0.00 52 1016.6
20260901194850 63 280 0.0 0.0 0.00 0.00 0.00 51 1016.6
20260901194328 64 300 0.0 0.0 0.00 0.00 0.00 50 1016.6
20260901193826 64 221 0.0 0.0 0.00 0.00 0.00 49 1016.5
20260901193324 65 214 0.0 0.0 0.00 0.00 0.00 47 1016.5
20260901192831 65 215 0.0 0.0 0.00 0.00 0.00 47 1016.5
20260901192327 65 203 0.0 0.0 0.00 0.00 0.00 43 1016.5
20260901191823 65 203 0.0 0.0 0.00 0.00 0.00 42 1016.5
20260901191348 64 190 0.0 0.0 0.00 0.00 0.00 44 1016.5
20260901190824 64 190 0.0 0.0 0.00 0.00 0.00 43 1016.1
20260901190319 63 188 0.0 0.0 0.00 0.00 0.00 48 1016.1
20260901185816 63 190 0.0 0.0 0.00 0.00 0.00 47 1016.1
20260901185401 63 188 0.0 0.0 0.00 0.00 0.00 48 1016.1
20260901184837 62 143 0.0 0.0 0.00 0.00 0.00 53 1016.4
20260901184341 61 190 0.0 0.0 0.00 0.00 0.00 57 1016.4
20260901183815 60 214 0.0 0.0 0.00 0.00 0.00 61 1016.6
20260901183339 59 201 0.0 0.0 0.00 0.00 0.00 60 1016.6
20260901182834 58 200 0.0 0.0 0.00 0.00 0.00 63 1016.6
20260901182334 58 200 0.0 0.0 0.00 0.00 0.00 65 1016.6
20260901181854 57 199 0.0 0.0 0.00 0.00 0.00 67 1016.6
20260901181333 56 209 0.0 0.0 0.00 0.00 0.00 68 1016.6
20260901180832 56 211 0.0 0.0 0.00 0.00 0.00 70 1016.7
20260901180329 55 294 0.0 0.0 0.00 0.00 0.00 71 1016.7
20260901175827 55 296 0.0 0.0 0.00 0.00 0.00 72 1016.7
20260901175325 54 315 0.0 0.0 0.00 0.00 0.00 73 1016.6
20260901174828 54 302 0.0 0.0 0.00 0.00 0.00 73 1016.6
20260901174325 54 306 0.0 0.0 0.00 0.00 0.00 75 1016.6